Regional Weather Roundup
Issued by NWS

Home | Current Version | Previous Version | Graphics & Text | Print | Product List | Glossary On
Versions: 1 2 3 4 5 6 7 8 9 10 11 12 13 14 15 16 17 18 19 20 21 22 23 24 25 26 27 28 29
000
ASUS43 KDMX 300307
RWRIA

WEATHER ROUNDUP FOR IOWA
NATIONAL WEATHER SERVICE DES MOINES IA
1000 PM CDT WED OCT 29 2014

NOTE: "FAIR" INDICATES FEW OR NO CLOUDS BELOW 12,000 FEET WITH NO
SIGNIFICANT WEATHER AND/OR OBSTRUCTIONS TO VISIBILITY.

* - THESE STATIONS ARE NOT NWS STATIONS...THUS NOT UNDER NWS
QUALITY CONTROL.  THEY ALSO DO NOT REPORT WEATHER SUCH
AS PRECIPITATION OR FOG.

IAZ001>003-012>014-020>022-031>034-043>046-300400-
   NORTHWEST IOWA

CITY           SKY/WX    TMP DP  RH WIND       PRES   REMARKS
CARROLL *      CLEAR     37  32  81 CALM      30.10R
CHEROKEE *     MOCLDY    36  34  93 CALM      30.07F
DENISON *      CLEAR     39  32  75 E3        30.07S
LE MARS *      PTCLDY    43  32  65 S6        30.05F
ORANGE CITY *  CLEAR     45  30  57 SE5       30.05F
SHELDON *      PTCLDY    41  32  70 S5        30.04F
SIOUX CITY     PTCLDY    39  31  72 SE6       30.06F WCI  35
SPENCER        MOCLDY    39  31  72 SE3       30.07F
STORM LAKE *   CLEAR     41  30  65 S5        30.09S
$$

IAZ055>058-069>071-079>083-090>094-300400-
   SOUTHWEST IOWA

CITY           SKY/WX    TMP DP  RH WIND       PRES   REMARKS
ATLANTIC *     CLEAR     37  32  81 N5        30.09S WCI  34
AUDUBON *      CLEAR     34  28  80 CALM      30.10S
CLARINDA *     CLEAR     36  34  93 CALM      30.11S
COUNCIL BLFS * CLEAR     45  32  61 SE7       30.06S
CRESTON *      CLEAR     39  32  75 SE6       30.10F WCI  35
HARLAN  *      CLEAR     36  32  87 CALM      30.12S
LAMONI         CLEAR     46  33  60 S6        30.12S
RED OAK *      PTCLDY    39  32  75 CALM      30.09S
SHENANDOAH *   CLEAR     41  34  75 E3        30.09S
$$

IAZ047>049-059>061-072>074-084-300400-
   CENTRAL IOWA

CITY           SKY/WX    TMP DP  RH WIND       PRES   REMARKS
AMES           CLEAR     37  32  82 CALM      30.12R
ANKENY *       CLEAR     37  36  93 CALM      30.12S
CHARITON *     CLEAR     41  34  75 SE3       30.13R
DES MOINES     PTCLDY    45  33  63 S6        30.13R
GRINNELL*      CLEAR     34  30  86 SE3       30.13S
KNOXVILLE *    CLEAR     43  32  65 SE7       30.12R
MARSHALLTOWN   CLEAR     38  32  79 S6        30.11S WCI  33
PELLA *        CLEAR     39  34  81 CALM      30.14S
PERRY *          N/A     36  34  93 S3        30.10F
$$

IAZ004>006-015-016-023>025-035-036-300400-
   NORTH CENTRAL IOWA

CITY           SKY/WX    TMP DP  RH WIND       PRES   REMARKS
ALGONA *       CLEAR     37  32  81 S9        30.09S WCI  31
CLARION *      CLEAR     36  32  87 SE7       30.10S WCI  30
ESTHERVILLE    MOCLDY    37  29  72 S7        30.07F WCI  32
FORT DODGE *     N/A     36  30  80 CALM      30.10S
MASON CITY     PTCLDY    33  30  88 S6        30.11S WCI  28
FOREST CITY *  CLEAR     32  32 100 CALM      30.09F
IOWA FALLS *     N/A     37  32  81 CALM      30.12S
$$

IAZ007>011-017>019-026>030-037>042-050>054-066-300400-
   NORTHEAST IOWA

CITY           SKY/WX    TMP DP  RH WIND       PRES   REMARKS
CEDAR RAPIDS   CLEAR     35  31  85 CALM      30.13R
CHARLES CITY * CLEAR     36  30  80 SE5       30.12S WCI  32
CLINTON *      CLEAR     34  28  80 CALM      30.17S
DECORAH *      PTCLDY    36  32  87 CALM      30.11S
DUBUQUE        CLEAR     33  30  88 CALM      30.13S
MONTICELLO *   CLEAR     32  30  93 CALM      30.13S
OELWEIN *      CLEAR     34  30  86 SE5       30.13R WCI  30
WATERLOO       CLEAR     33  29  85 CALM      30.12R
$$

IAZ064-065-067-068-078-300400-
   EAST CENTRAL IOWA

CITY           SKY/WX    TMP DP  RH WIND       PRES   REMARKS
DAVENPORT      CLEAR     37  29  72 CALM      30.14S
IOWA CITY      CLEAR     37  33  85 CALM      30.15S
MT. PLEASANT * CLEAR     36  32  87 CALM      30.15S
MUSCATINE *    CLEAR     39  32  75 CALM      30.15S
QUAD CITIES    CLEAR     36  31  82 CALM      30.14S
$$

IAZ062-063-075>077-085>089-095>099-300400-
   SOUTHEAST IOWA

CITY           SKY/WX    TMP DP  RH WIND       PRES   REMARKS
BURLINGTON     CLEAR     37  33  85 N3        30.14S
FAIRFIELD *    CLEAR     37  32  81 SE3       30.14S
FORT MADISON * CLEAR     41  36  81 CALM      30.16R
KEOKUK *       CLEAR     41  36  81 CALM      30.15R
OSKALOOSA *      N/A     36  32  87 SE7       30.14R WCI  30
CENTERVILLE *  CLEAR     34  32  93 SE3       30.14S
OTTUMWA        CLEAR     35  30  82 SE3       30.14R
WASHINGTON *   CLEAR     36  34  93 CALM      30.14S
$$

ABBREVIATIONS USED IN REMARKS
   TC - TEMPERATURES IN CELSIUS
  WCI - WIND CHILL INDEX
   HX - HEAT INDEX
  VSB - VISIBILITY
$$




USA.gov is the U.S. government's official web portal to all federal, state and local government web resources and services.